Tracking 30923 objects as of 1-Jul-2025
HD Live streaming from Space Station
objects crossing your sky now

COSMOS 2506 DEB

Track COSMOS 2506 DEB now!
10-day predictions


NORAD ID: 47212
Int'l Code: 1994-074CY
Perigee: 666.0 km
Apogee: 677.3 km
Inclination: 98.2 °
Period: 98.0 minutes
Semi major axis: 7042 km
RCS: Unknown
Launch date: November 4, 1994
Source: Commonwealth of Independent States (former USSR) (CIS)
Launch site: TYURATAM MISSILE AND SPACE COMPLEX (TTMTR)

Note: This is SATELLITE DEBRIS
Your satellite tracking list
Your tracking list is empty




NASA's NSSDC Master Catalog

Two Line Element Set (TLE):
1 47212U 15029C   25181.13222032  .00002524  00000-0  43966-3 0  9999
2 47212  98.1538 249.5754 0007986 163.3512 196.7956 14.68918691245882
Source of the keplerian elements: AFSPC